Location: Carrières
(48.9495°N, 2.0407°E)
Time: 20:09:20
(UTC+00:00)

Courier 1B Rocket - Pass Details

Date: 18 April 2024
Orbit: 920 x 1201 km, 28.2° (Epoch: 25 May)

Event Time Altitude Azimuth Distance (km) Brightness Sun altitude
Rises 05:42:36 0° 221° (SW) 3,912 7.7 6.9°
Reaches altitude 10° 05:47:50 10° 190° (S) 2,876 7.3 7.7°
Maximum altitude 05:49:51 11° 173° (S) 2,746 7.4 8.1°
Drops below altitude 10° 05:51:50 10° 156° (SSE) 2,815 7.7 8.4°
Sets 05:56:46 0° 125° (SE) 3,692 8.9 9.2°
